Lid_Strength_Index
10 13 15 14 10 9 7 7 10 11 9 9 9 6 5 2 1 2 1 -0 -0 -1 -1 -1 -2 -1 -1 -2 -2 -2 -2 -2
12 14 11 10 8 8 8 7 9 9 9 8 6 5 4 2 1 1 0 -0 -1 -1 -1 -1 -1 -1 -1 -2 -1 -2 -2 -2
13 12 10 8 7 8 8 8 9 8 9 9 6 4 3 1 1 2 2 0 -0 -1 -1 -1 -1 -1 -1 -1 -1 -1 -2 -2
14 11 9 8 7 8 8 8 9 9 9 9 6 5 2 1 2 2 1 0 0 -1 -1 -1 -1 -1 -1 -1 -1 -1 -1 -1
12 11 10 8 8 8 9 9 8 8 9 8 7 5 1 1 1 1 0 0 0 0 -1 -1 -1 -1 -1 -1 -1 -1 -1 -1
10 11 10 7 8 9 9 8 6 6 9 9 7 5 4 3 3 2 1 0 0 0 0 0 0 -1 -1 -1 -1 -1 -1 -1
11 10 9 8 9 7 7 8 8 6 7 6 5 6 5 5 5 4 3 2 2 1 1 1 1 0 -1 -2 -1 -1 -1 -2
8 8 9 8 8 7 7 7 7 7 6 5 5 6 6 5 4 5 4 4 3 3 2 2 0 1 1 0 0 1 0 0
7 6 7 7 7 6 7 8 7 8 6 6 6 7 6 5 4 4 3 4 5 3 2 1 1 2 1 1 1 1 1 1
6 6 7 7 6 6 6 6 5 5 6 6 7 7 6 5 5 6 6 5 4 2 2 2 2 1 2 2 2 2 1 0
6 6 6 5 7 7 6 5 4 5 7 6 6 6 5 5 5 7 6 5 4 2 2 2 2 2 2 3 2 2 1 1
7 7 6 7 7 7 6 4 6 6 7 6 6 6 6 6 6 7 6 4 3 2 2 2 2 2 3 3 2 2 2 2
10 9 9 7 10 9 6 5 6 7 7 7 6 6 6 5 5 6 5 4 3 2 2 2 2 2 2 2 2 2 2 2
11 9 9 9 13 9 7 8 7 7 7 7 7 6 5 5 6 5 4 3 3 1 2 2 3 2 2 2 2 2 2 1
14 10 10 10 12 9 8 8 8 8 7 7 7 7 5 6 6 4 3 3 3 2 3 3 2 3 2 2 2 2 2 1
14 11 11 11 11 10 9 9 9 8 7 7 7 7 6 6 5 4 3 3 3 2 2 2 3 3 3 2 2 2 2 1
12 10 11 12 12 10 9 10 9 9 8 8 8 7 7 6 5 4 4 3 3 2 3 3 3 3 3 3 3 2 2 1
11 10 11 11 12 10 10 9 9 8 8 8 8 7 6 7 5 4 4 3 3 2 3 3 3 3 3 3 2 2 2 1
13 11 11 10 13 12 10 9 9 8 8 8 8 7 7 6 6 4 4 3 3 3 3 3 3 3 3 3 3 3 2 2
11 13 16 11 18 13 11 10 9 9 9 8 8 6 7 6 6 5 4 3 3 3 3 3 3 3 4 4 4 3 3 2